Taos, NM

12:48 PM MST on January 19, 2018 (GMT -0700)
Taos Municipal

Weather History for KSKX - December, 2011

Change the Weather History Date:

Monday, December 5, 2011

  Actual Average Record
Temperature  
Mean Temperature 16 °F -  
Max Temperature 21 °F 40 °F 59 °F (2012)
Min Temperature 10 °F 11 °F -5 °F (2005)
Degree Days  
Heating Degree Days 50    
Moisture  
Dew Point 5 °F    
Average Humidity 64    
Maximum Humidity 85    
Minimum Humidity 46    
Precipitation  
Precipitation 0.00 in - - ()
Sea Level Pressure  
Sea Level Pressure 30.10 in    
Wind  
Wind Speed 15 mph (ESE)    
Max Wind Speed 28 mph    
Max Gust Speed 32 mph    
Visibility 10 miles    
Events      
Averages and records for this station are not official NWS values.
T = Trace of Precipitation, MM = Missing Value Source: NWS Daily Summary

Daily Weather History Graph

Daily Weather History Graph

Search for Another Location

Airport or City:

Trip Planner

Search our weather history database for the weather conditions in past years. The results will help you decide how hot, cold, wet, or windy it might be!

Date:

Astronomy

Dec. 05, 2011 Rise Set
Actual Time 6:59 AM MST 4:47 PM MST
Civil Twilight 6:30 AM MST 5:15 PM MST
Nautical Twilight 5:58 AM MST 5:47 PM MST
Astronomical Twilight 5:27 AM MST 6:18 PM MST
Moon 1:41 PM MST (12/5) 2:28 AM MST (12/5)
Length of Visible Light 10h 44m
Length of Day
9h 47m
Waxing Gibbous, 80% of the Moon is Illuminated
Dec 5
Waxing Gibbous
Dec 10
Full
Dec 17
Last Quarter
Dec 24
New
Dec 31
First Quarter

Hourly Weather History & Observations

Time (MST) Temp. Windchill Dew Point Humidity Pressure Visibility Wind Dir Wind Speed Gust Speed Precip Events Conditions
12:15 AM 17.6 °F -0.6 °F 5.0 °F 58% 30.01 in 10.0 mi SE 25.3 mph 29.9 mph N/A   Overcast
12:35 AM 17.6 °F -0.3 °F 5.0 °F 58% 30.01 in 10.0 mi SE 24.2 mph 31.1 mph N/A   Overcast
12:55 AM 17.6 °F -1.3 °F 5.0 °F 58% 30.01 in 10.0 mi ESE 27.6 mph 32.2 mph N/A   Overcast
1:15 AM 17.6 °F 1.3 °F 6.8 °F 63% 30.02 in 10.0 mi ESE 19.6 mph 32.2 mph N/A   Overcast
1:35 AM 17.6 °F 0.9 °F 6.8 °F 63% 30.03 in 10.0 mi ESE 20.7 mph 27.6 mph N/A   Overcast
1:55 AM - - - N/A% 30.04 in 10.0 mi SE 16.1 mph 26.5 mph N/A   Overcast
2:15 AM 17.6 °F 0.1 °F 6.8 °F 63% 30.04 in 10.0 mi ESE 23.0 mph 28.8 mph N/A   Overcast
2:35 AM 17.6 °F 1.3 °F 6.8 °F 63% 30.04 in 10.0 mi ESE 19.6 mph 25.3 mph N/A   Overcast
3:15 AM 17.6 °F 10.7 °F 8.6 °F 68% 30.06 in 10.0 mi East 4.6 mph - N/A   Overcast
3:35 AM 15.8 °F 3.4 °F 5.0 °F 62% 30.05 in 10.0 mi East 10.4 mph 16.1 mph N/A   Overcast
4:15 AM 15.8 °F 2.1 °F 3.2 °F 58% 30.06 in 10.0 mi ESE 12.7 mph 18.4 mph N/A   Overcast
4:35 AM 15.8 °F 1.4 °F 5.0 °F 62% 30.07 in 10.0 mi East 13.8 mph 20.7 mph N/A   Overcast
4:55 AM 15.8 °F 10.2 °F 10.4 °F 79% 30.08 in 2.5 mi East 3.5 mph - N/A   Overcast
5:15 AM 15.8 °F 0.9 °F 3.2 °F 58% 30.08 in 10.0 mi ESE 15.0 mph - N/A   Overcast
5:35 AM 15.8 °F 3.4 °F 3.2 °F 58% 30.09 in 10.0 mi East 10.4 mph - N/A   Overcast
5:55 AM 15.8 °F 1.4 °F 3.2 °F 58% 30.10 in 10.0 mi ESE 13.8 mph 19.6 mph N/A   Overcast
6:15 AM 15.8 °F -0.2 °F 3.2 °F 58% 30.10 in 10.0 mi ESE 17.3 mph 23.0 mph N/A   Overcast
6:35 AM 15.8 °F -0.2 °F 3.2 °F 58% 30.11 in 10.0 mi ESE 17.3 mph 20.7 mph N/A   Overcast
6:55 AM 14.0 °F -3.0 °F 3.2 °F 62% 30.11 in 10.0 mi ESE 18.4 mph 24.2 mph N/A   Overcast
7:15 AM 14.0 °F -1.4 °F 3.2 °F 62% 30.12 in 10.0 mi East 15.0 mph 20.7 mph N/A   Overcast
7:35 AM 14.0 °F 0.5 °F 3.2 °F 62% 30.13 in 10.0 mi East 11.5 mph - N/A   Overcast
7:55 AM 14.0 °F 5.1 °F 5.0 °F 67% 30.13 in 10.0 mi North 5.8 mph - N/A   Overcast
8:15 AM 14.0 °F - 6.8 °F 73% 30.15 in 10.0 mi Calm Calm - N/A   Overcast
8:35 AM 14.0 °F 8.2 °F 8.6 °F 79% 30.15 in 10.0 mi NNW 3.5 mph - N/A   Overcast
9:15 AM 15.8 °F 0.9 °F 1.4 °F 53% 30.17 in 10.0 mi East 15.0 mph - N/A   Overcast
9:35 AM 15.8 °F -0.6 °F 3.2 °F 58% 30.17 in 10.0 mi ESE 18.4 mph 24.2 mph N/A   Overcast
9:55 AM 15.8 °F -1.5 °F 3.2 °F 58% 30.16 in 10.0 mi ESE 20.7 mph 26.5 mph N/A   Overcast
10:15 AM 15.8 °F -0.2 °F 3.2 °F 58% 30.17 in 10.0 mi ESE 17.3 mph 23.0 mph N/A   Overcast
10:35 AM 17.6 °F 2.2 °F 3.2 °F 53% 30.16 in 10.0 mi ESE 17.3 mph - N/A   Overcast
10:55 AM 17.6 °F 2.7 °F 3.2 °F 53% 30.16 in 10.0 mi ESE 16.1 mph 24.2 mph N/A   Overcast
11:15 AM 17.6 °F 9.3 °F 6.8 °F 63% 30.15 in 10.0 mi NNE 5.8 mph 18.4 mph N/A   Overcast
11:35 AM 17.6 °F 12.3 °F 8.6 °F 68% 30.13 in 10.0 mi ENE 3.5 mph - N/A   Overcast
11:55 AM 19.4 °F 6.0 °F 3.2 °F 49% 30.12 in 10.0 mi ESE 13.8 mph 19.6 mph N/A   Overcast
12:15 PM 19.4 °F 6.0 °F 3.2 °F 49% 30.11 in 10.0 mi ESE 13.8 mph - N/A   Mostly Cloudy
12:35 PM 19.4 °F 7.2 °F 3.2 °F 49% 30.10 in 10.0 mi ESE 11.5 mph - N/A   Overcast
12:55 PM 21.2 °F 9.5 °F 5.0 °F 50% 30.09 in 10.0 mi East 11.5 mph - N/A   Overcast
1:15 PM 21.2 °F 10.1 °F 3.2 °F 46% 30.08 in 10.0 mi East 10.4 mph - N/A   Mostly Cloudy
2:15 PM 19.4 °F - 3.2 °F 49% 30.07 in 10.0 mi Calm Calm - N/A   Mostly Cloudy
2:35 PM 21.2 °F - 3.2 °F 46% 30.08 in 10.0 mi Calm Calm - N/A   Mostly Cloudy
2:55 PM 19.4 °F 10.4 °F 6.8 °F 58% 30.08 in 10.0 mi NW 6.9 mph - N/A   Mostly Cloudy
3:15 PM 19.4 °F 10.4 °F 6.8 °F 58% 30.08 in 10.0 mi NNW 6.9 mph - N/A   Mostly Cloudy
3:35 PM 19.4 °F 11.5 °F 6.8 °F 58% 30.08 in 10.0 mi NNW 5.8 mph - N/A   Overcast
3:55 PM 17.6 °F - 6.8 °F 63% 30.09 in 10.0 mi Calm Calm - N/A   Overcast
4:15 PM 17.6 °F 8.2 °F 6.8 °F 63% 30.10 in 10.0 mi WSW 6.9 mph - N/A   Overcast
4:35 PM 15.8 °F 3.4 °F 6.8 °F 68% 30.10 in 10.0 mi WSW 10.4 mph - N/A   Overcast
4:55 PM 14.0 °F 2.0 °F 8.6 °F 79% 30.11 in 10.0 mi WSW 9.2 mph - N/A   Mostly Cloudy
5:15 PM 12.2 °F -0.2 °F 8.6 °F 85% 30.11 in 10.0 mi WSW 9.2 mph - N/A   Partly Cloudy
5:35 PM 12.2 °F -0.2 °F 8.6 °F 85% 30.12 in 10.0 mi WSW 9.2 mph - N/A   Mostly Cloudy
5:55 PM 10.4 °F -0.4 °F 6.8 °F 85% 30.12 in 10.0 mi West 6.9 mph - N/A   Overcast
6:15 PM 12.2 °F -0.2 °F 6.8 °F 79% 30.12 in 10.0 mi West 9.2 mph - N/A   Overcast
6:35 PM 10.4 °F -1.5 °F 6.8 °F 85% 30.14 in 10.0 mi West 8.1 mph - N/A   Overcast
6:55 PM 12.2 °F 2.9 °F 6.8 °F 79% 30.14 in 10.0 mi West 5.8 mph - N/A   Overcast
7:15 PM 12.2 °F 2.9 °F 8.6 °F 85% 30.15 in 10.0 mi WNW 5.8 mph - N/A   Overcast
7:35 PM 12.2 °F 2.9 °F 6.8 °F 79% 30.16 in 10.0 mi NW 5.8 mph - N/A   Overcast
7:55 PM 12.2 °F - 6.8 °F 79% 30.17 in 9.0 mi Calm Calm - N/A   Overcast
8:15 PM 10.4 °F 2.2 °F 6.8 °F 85% 30.18 in 8.0 mi NNW 4.6 mph - N/A   Overcast
8:35 PM 10.4 °F 0.8 °F 6.8 °F 85% 30.18 in 10.0 mi WNW 5.8 mph - N/A   Overcast
8:55 PM 10.4 °F 0.8 °F 6.8 °F 85% 30.18 in 10.0 mi WNW 5.8 mph - N/A   Overcast
9:15 PM 10.4 °F 2.2 °F 6.8 °F 85% 30.18 in 5.0 mi NNW 4.6 mph - N/A   Mostly Cloudy
9:35 PM 10.4 °F - 6.8 °F 85% 30.18 in 2.5 mi Calm Calm - N/A   Overcast
9:55 PM 10.4 °F -0.4 °F 5.0 °F 79% 30.18 in 3.0 mi NW 6.9 mph - N/A   Overcast
10:15 PM 8.6 °F - 3.2 °F 79% 30.18 in 5.0 mi Calm Calm - N/A   Overcast
10:35 PM 8.6 °F - 5.0 °F 85% 30.18 in 10.0 mi Calm Calm - N/A   Mostly Cloudy
10:55 PM 6.8 °F -0.1 °F 1.4 °F 79% 30.18 in 10.0 mi North 3.5 mph - N/A   Scattered Clouds
11:15 PM 3.2 °F -4.2 °F 1.4 °F 92% 30.17 in 10.0 mi North 3.5 mph - N/A   Scattered Clouds
11:35 PM 5.0 °F - 3.2 °F 92% 30.17 in 10.0 mi Calm Calm - N/A   Scattered Clouds
11:55 PM 5.0 °F - -0.4 °F 78% 30.16 in 10.0 mi Calm Calm - N/A   Mostly Cloudy